Time,TemperatureF,DewpointF,PressureIn,WindDirection,WindDirectionDegrees,WindSpeedMPH,WindSpeedGustMPH,Humidity,HourlyPrecipIn,Conditions,Clouds,dailyrainin,SoftwareType,DateUTC
2013-02-20 00:00:00,32.0,25.0,29.53,SE,135,0.0,0.0,75,0.00,,---,0.00,VWS V13.01,2013-02-20 08:00:00,
2013-02-20 00:05:00,32.0,25.0,29.53,SE,135,0.0,0.0,75,0.00,,---,0.00,VWS V13.01,2013-02-20 08:05:00,
2013-02-20 00:10:00,32.0,25.0,29.53,SE,135,0.0,0.0,75,0.00,,---,0.00,VWS V13.01,2013-02-20 08:10:00,
2013-02-20 00:15:00,32.0,25.0,29.53,SE,135,0.0,0.0,75,0.00,,---,0.00,VWS V13.01,2013-02-20 08:15:00,
2013-02-20 00:20:00,32.0,25.0,29.53,SE,135,0.0,0.0,75,0.00,,---,0.00,VWS V13.01,2013-02-20 08:20:00,
2013-02-20 00:25:00,32.0,25.0,29.53,SE,135,0.0,0.0,75,0.00,,---,0.00,VWS V13.01,2013-02-20 08:25:00,
2013-02-20 00:30:00,32.0,25.0,29.53,SE,135,0.0,0.0,75,0.00,,---,0.00,VWS V13.01,2013-02-20 08:30:00,
2013-02-20 00:35:00,31.0,24.3,29.53,SE,135,0.0,0.0,76,0.00,,---,0.00,VWS V13.01,2013-02-20 08:35:00,
2013-02-20 00:40:00,31.0,24.3,29.53,SE,135,0.0,0.0,76,0.00,,---,0.00,VWS V13.01,2013-02-20 08:40:00,
2013-02-20 00:45:00,31.0,24.3,29.53,SE,135,0.0,0.0,76,0.00,,---,0.00,VWS V13.01,2013-02-20 08:45:00,
2013-02-20 00:50:00,31.0,24.3,29.53,SE,135,0.0,0.0,76,0.00,,---,0.00,VWS V13.01,2013-02-20 08:50:00,
2013-02-20 00:55:00,31.0,24.3,29.53,SE,135,0.0,0.0,76,0.00,,---,0.00,VWS V13.01,2013-02-20 08:55:00,
2013-02-20 01:00:00,31.0,24.3,29.53,SE,135,0.0,0.0,76,0.00,,---,0.00,VWS V13.01,2013-02-20 09:00:00,
2013-02-20 01:05:00,31.0,24.0,29.53,SE,135,0.0,0.0,75,0.00,,---,0.00,VWS V13.01,2013-02-20 09:05:00,
2013-02-20 01:10:00,31.0,24.0,29.53,SE,135,0.0,0.0,75,0.00,,---,0.00,VWS V13.01,2013-02-20 09:10:00,
2013-02-20 01:15:00,31.0,24.0,29.53,SE,135,0.0,0.0,75,0.00,,---,0.00,VWS V13.01,2013-02-20 09:15:00,
2013-02-20 01:20:00,31.0,24.0,29.53,SE,135,0.0,0.0,75,0.00,,---,0.00,VWS V13.01,2013-02-20 09:20:00,
2013-02-20 01:25:00,31.0,24.0,29.53,SE,135,0.0,0.0,75,0.00,,---,0.00,VWS V13.01,2013-02-20 09:25:00,
2013-02-20 01:30:00,31.0,24.0,29.53,SE,135,0.0,0.0,75,0.00,,---,0.00,VWS V13.01,2013-02-20 09:30:00,
2013-02-20 01:35:00,31.0,24.0,29.55,SE,135,0.0,0.0,75,0.00,,---,0.00,VWS V13.01,2013-02-20 09:35:00,
2013-02-20 01:40:00,32.0,25.0,29.55,SE,135,0.0,0.0,75,0.00,,---,0.00,VWS V13.01,2013-02-20 09:40:00,
2013-02-20 01:45:00,32.0,25.0,29.53,SE,135,0.0,0.0,75,0.00,,---,0.00,VWS V13.01,2013-02-20 09:45:00,
2013-02-20 01:50:00,32.0,25.0,29.53,SE,135,0.0,0.0,75,0.00,,---,0.00,VWS V13.01,2013-02-20 09:50:00,
2013-02-20 01:55:00,32.0,25.0,29.53,SE,135,0.0,0.0,75,0.00,,---,0.00,VWS V13.01,2013-02-20 09:55:00,
2013-02-20 02:00:00,32.0,25.0,29.53,SE,135,0.0,0.0,75,0.00,,---,0.00,VWS V13.01,2013-02-20 10:00:00,
2013-02-20 02:05:00,31.0,24.0,29.53,SE,135,0.0,0.0,75,0.00,,---,0.00,VWS V13.01,2013-02-20 10:05:00,
2013-02-20 02:10:00,31.0,24.0,29.53,SE,135,0.0,0.0,75,0.00,,---,0.00,VWS V13.01,2013-02-20 10:10:00,
2013-02-20 02:15:00,30.0,23.0,29.55,SE,135,0.0,0.0,75,0.00,,---,0.00,VWS V13.01,2013-02-20 10:15:00,
2013-02-20 02:20:00,30.0,23.0,29.55,SE,135,0.0,0.0,75,0.00,,---,0.00,VWS V13.01,2013-02-20 10:20:00,
2013-02-20 02:25:00,30.0,23.0,29.54,SE,135,0.0,0.0,75,0.00,,---,0.00,VWS V13.01,2013-02-20 10:25:00,
2013-02-20 02:30:00,30.0,23.0,29.54,SE,135,0.0,0.0,75,0.00,,---,0.00,VWS V13.01,2013-02-20 10:30:00,
2013-02-20 02:35:00,30.0,23.0,29.53,SE,135,0.0,0.0,75,0.00,,---,0.00,VWS V13.01,2013-02-20 10:35:00,
2013-02-20 02:40:00,31.0,24.0,29.53,SE,135,0.0,0.0,75,0.00,,---,0.00,VWS V13.01,2013-02-20 10:40:00,
2013-02-20 02:45:00,31.0,24.0,29.55,SE,135,0.0,0.0,75,0.00,,---,0.00,VWS V13.01,2013-02-20 10:45:00,
2013-02-20 02:50:00,32.0,25.0,29.55,South,180,0.0,0.0,75,0.00,,---,0.00,VWS V13.01,2013-02-20 10:50:00,
2013-02-20 02:55:00,32.0,25.0,29.54,South,180,0.0,0.0,75,0.00,,---,0.00,VWS V13.01,2013-02-20 10:55:00,
2013-02-20 03:00:00,32.0,25.0,29.54,South,180,0.0,0.0,75,0.00,,---,0.00,VWS V13.01,2013-02-20 11:00:00,
2013-02-20 03:05:00,32.0,25.0,29.55,South,180,0.0,0.0,75,0.00,,---,0.00,VWS V13.01,2013-02-20 11:05:00,
2013-02-20 03:10:00,31.0,24.0,29.55,South,180,0.0,0.0,75,0.00,,---,0.00,VWS V13.01,2013-02-20 11:10:00,
2013-02-20 03:15:00,30.0,23.0,29.53,South,180,0.0,0.0,75,0.00,,---,0.00,VWS V13.01,2013-02-20 11:15:00,
2013-02-20 03:20:00,30.0,23.0,29.53,South,180,0.0,0.0,75,0.00,,---,0.00,VWS V13.01,2013-02-20 11:20:00,
2013-02-20 03:25:00,30.0,23.0,29.53,South,180,0.0,0.0,75,0.00,,---,0.00,VWS V13.01,2013-02-20 11:25:00,
2013-02-20 03:30:00,30.0,23.0,29.53,South,180,0.0,0.0,75,0.00,,---,0.00,VWS V13.01,2013-02-20 11:30:00,
2013-02-20 03:35:00,30.0,23.0,29.53,South,180,0.0,0.0,75,0.00,,---,0.00,VWS V13.01,2013-02-20 11:35:00,
2013-02-20 03:40:00,30.0,23.0,29.53,South,180,0.0,0.0,75,0.00,,---,0.00,VWS V13.01,2013-02-20 11:40:00,
2013-02-20 03:45:00,30.0,23.0,29.55,South,180,0.0,0.0,75,0.00,,---,0.00,VWS V13.01,2013-02-20 11:45:00,
2013-02-20 03:50:00,30.0,23.0,29.55,South,180,0.0,0.0,75,0.00,,---,0.00,VWS V13.01,2013-02-20 11:50:00,
2013-02-20 03:55:00,30.0,23.0,29.55,South,180,0.0,0.0,75,0.00,,---,0.00,VWS V13.01,2013-02-20 11:55:00,
2013-02-20 04:00:00,30.0,23.0,29.55,South,180,0.0,0.0,75,0.00,,---,0.00,VWS V13.01,2013-02-20 12:00:00,
2013-02-20 04:05:00,29.0,22.1,29.55,South,180,0.0,0.0,75,0.00,,---,0.00,VWS V13.01,2013-02-20 12:05:00,
2013-02-20 04:10:00,29.0,22.1,29.55,South,180,0.0,0.0,75,0.00,,---,0.00,VWS V13.01,2013-02-20 12:10:00,
2013-02-20 04:15:00,29.0,22.1,29.56,South,180,0.0,0.0,75,0.00,,---,0.00,VWS V13.01,2013-02-20 12:15:00,
2013-02-20 04:20:00,29.0,22.1,29.56,South,180,0.0,0.0,75,0.00,,---,0.00,VWS V13.01,2013-02-20 12:20:00,
2013-02-20 04:25:00,29.0,22.1,29.56,South,180,0.0,0.0,75,0.00,,---,0.00,VWS V13.01,2013-02-20 12:25:00,
2013-02-20 04:30:00,29.0,22.1,29.56,South,180,0.0,0.0,75,0.00,,---,0.00,VWS V13.01,2013-02-20 12:30:00,
2013-02-20 04:35:00,29.0,22.1,29.57,South,180,0.0,0.0,75,0.00,,---,0.00,VWS V13.01,2013-02-20 12:35:00,
2013-02-20 04:40:00,29.0,22.1,29.57,South,180,0.0,0.0,75,0.00,,---,0.00,VWS V13.01,2013-02-20 12:40:00,
2013-02-20 04:45:00,29.0,22.1,29.57,South,180,0.0,0.0,75,0.00,,---,0.00,VWS V13.01,2013-02-20 12:45:00,
2013-02-20 04:50:00,29.0,22.1,29.57,South,180,0.0,0.0,75,0.00,,---,0.00,VWS V13.01,2013-02-20 12:50:00,
2013-02-20 04:55:00,29.0,22.1,29.58,South,180,0.0,0.0,75,0.00,,---,0.00,VWS V13.01,2013-02-20 12:55:00,
2013-02-20 05:00:00,29.0,22.1,29.58,South,180,0.0,0.0,75,0.00,,---,0.00,VWS V13.01,2013-02-20 13:00:00,
2013-02-20 05:05:00,29.0,22.1,29.59,South,180,0.0,0.0,75,0.00,,---,0.00,VWS V13.01,2013-02-20 13:05:00,
2013-02-20 05:10:00,29.0,22.1,29.59,South,180,0.0,0.0,75,0.00,,---,0.00,VWS V13.01,2013-02-20 13:10:00,
2013-02-20 05:15:00,29.0,22.1,29.59,South,180,0.0,0.0,75,0.00,,---,0.00,VWS V13.01,2013-02-20 13:15:00,
2013-02-20 05:20:00,29.0,22.1,29.59,South,180,0.0,0.0,75,0.00,,---,0.00,VWS V13.01,2013-02-20 13:20:00,
2013-02-20 05:25:00,29.0,22.1,29.59,South,180,0.0,0.0,75,0.00,,---,0.00,VWS V13.01,2013-02-20 13:25:00,
2013-02-20 05:30:00,29.0,22.1,29.59,South,180,0.0,0.0,75,0.00,,---,0.00,VWS V13.01,2013-02-20 13:30:00,
2013-02-20 05:35:00,29.0,22.1,29.59,South,180,0.0,0.0,75,0.00,,---,0.00,VWS V13.01,2013-02-20 13:35:00,
2013-02-20 05:40:00,29.0,22.1,29.59,South,180,0.0,0.0,75,0.00,,---,0.00,VWS V13.01,2013-02-20 13:40:00,
2013-02-20 05:45:00,29.0,22.1,29.59,South,180,0.0,0.0,75,0.00,,---,0.00,VWS V13.01,2013-02-20 13:45:00,
2013-02-20 05:50:00,29.0,22.1,29.59,South,180,0.0,0.0,75,0.00,,---,0.00,VWS V13.01,2013-02-20 13:50:00,
2013-02-20 05:55:00,29.0,22.1,29.59,South,180,0.0,0.0,75,0.00,,---,0.00,VWS V13.01,2013-02-20 13:55:00,
2013-02-20 06:00:00,29.0,22.1,29.59,South,180,0.0,0.0,75,0.00,,---,0.00,VWS V13.01,2013-02-20 14:00:00,
2013-02-20 06:05:00,29.0,22.1,29.59,South,180,0.0,0.0,75,0.00,,---,0.00,VWS V13.01,2013-02-20 14:05:00,
2013-02-20 06:10:00,29.0,22.1,29.59,South,180,0.0,0.0,75,0.00,,---,0.00,VWS V13.01,2013-02-20 14:10:00,
2013-02-20 06:15:00,29.0,22.1,29.59,South,180,0.0,0.0,75,0.00,,---,0.00,VWS V13.01,2013-02-20 14:15:00,
2013-02-20 06:20:00,29.0,22.1,29.59,South,180,0.0,0.0,75,0.00,,---,0.00,VWS V13.01,2013-02-20 14:20:00,
2013-02-20 06:25:00,29.0,22.1,29.59,South,180,0.0,0.0,75,0.00,,---,0.00,VWS V13.01,2013-02-20 14:25:00,
2013-02-20 06:30:00,29.0,22.1,29.59,South,180,0.0,0.0,75,0.00,,---,0.00,VWS V13.01,2013-02-20 14:30:00,
2013-02-20 06:35:00,29.0,22.1,29.59,South,180,0.0,0.0,75,0.00,,---,0.00,VWS V13.01,2013-02-20 14:35:00,
2013-02-20 06:40:00,29.0,22.1,29.59,South,180,0.0,0.0,75,0.00,,---,0.00,VWS V13.01,2013-02-20 14:40:00,
2013-02-20 06:45:00,29.0,22.1,29.59,South,180,0.0,0.0,75,0.00,,---,0.00,VWS V13.01,2013-02-20 14:45:00,
2013-02-20 06:50:00,29.0,22.1,29.59,South,180,0.0,0.0,75,0.00,,---,0.00,VWS V13.01,2013-02-20 14:50:00,
2013-02-20 06:55:00,29.0,22.1,29.59,South,180,0.0,0.0,75,0.00,,---,0.00,VWS V13.01,2013-02-20 14:55:00,
2013-02-20 07:00:00,29.0,22.1,29.59,South,180,0.0,0.0,75,0.00,,---,0.00,VWS V13.01,2013-02-20 15:00:00,
2013-02-20 07:05:00,29.0,22.1,29.59,South,180,0.0,0.0,75,0.00,,---,0.00,VWS V13.01,2013-02-20 15:05:00,
2013-02-20 07:10:00,29.0,22.1,29.59,South,180,0.0,0.0,75,0.00,,---,0.00,VWS V13.01,2013-02-20 15:10:00,
2013-02-20 07:15:00,29.0,22.1,29.59,South,180,0.0,0.0,75,0.00,,---,0.00,VWS V13.01,2013-02-20 15:15:00,
2013-02-20 07:20:00,29.0,22.1,29.59,South,180,0.0,0.0,75,0.00,,---,0.00,VWS V13.01,2013-02-20 15:20:00,
2013-02-20 07:25:00,29.0,22.1,29.59,South,180,0.0,0.0,75,0.00,,---,0.00,VWS V13.01,2013-02-20 15:25:00,
2013-02-20 07:30:00,29.0,22.1,29.59,South,180,0.0,0.0,75,0.00,,---,0.00,VWS V13.01,2013-02-20 15:30:00,
2013-02-20 07:35:00,29.0,22.1,29.62,SE,135,0.0,0.0,75,0.00,,---,0.00,VWS V13.01,2013-02-20 15:35:00,
2013-02-20 07:40:00,30.0,22.7,29.62,SE,135,0.0,0.0,74,0.00,,---,0.00,VWS V13.01,2013-02-20 15:40:00,
2013-02-20 07:45:00,32.0,24.7,29.63,SE,135,0.0,0.0,74,0.00,,---,0.00,VWS V13.01,2013-02-20 15:45:00,
2013-02-20 07:50:00,33.0,25.3,29.63,SE,135,0.0,0.0,73,0.00,,---,0.00,VWS V13.01,2013-02-20 15:50:00,
2013-02-20 07:55:00,34.0,26.3,29.62,SE,135,0.0,0.0,73,0.01,,---,0.01,VWS V13.01,2013-02-20 15:55:00,
2013-02-20 08:00:00,35.0,27.2,29.62,SE,135,0.0,0.0,73,0.01,,---,0.01,VWS V13.01,2013-02-20 16:00:00,
2013-02-20 08:05:00,35.0,27.2,29.63,SE,135,0.0,0.0,73,0.01,,---,0.01,VWS V13.01,2013-02-20 16:05:00,
2013-02-20 08:10:00,36.0,28.2,29.63,SE,135,0.0,0.0,73,0.01,,---,0.01,VWS V13.01,2013-02-20 16:10:00,
2013-02-20 08:15:00,36.0,28.2,29.63,SE,135,0.0,0.0,73,0.01,,---,0.01,VWS V13.01,2013-02-20 16:15:00,
2013-02-20 08:20:00,37.0,29.5,29.63,SE,135,0.0,0.0,74,0.01,,---,0.01,VWS V13.01,2013-02-20 16:20:00,
2013-02-20 08:25:00,36.0,28.5,29.63,WNW,292,0.0,0.0,74,0.01,,---,0.01,VWS V13.01,2013-02-20 16:25:00,
2013-02-20 08:30:00,35.0,27.6,29.63,West,270,0.0,0.0,74,0.01,,---,0.01,VWS V13.01,2013-02-20 16:30:00,
2013-02-20 08:35:00,36.0,28.5,29.65,West,270,0.0,0.0,74,0.01,,---,0.01,VWS V13.01,2013-02-20 16:35:00,
2013-02-20 08:40:00,36.0,28.5,29.65,West,270,0.0,1.0,74,0.01,,---,0.01,VWS V13.01,2013-02-20 16:40:00,
2013-02-20 08:45:00,36.0,28.5,29.65,West,270,0.0,0.0,74,0.01,,---,0.01,VWS V13.01,2013-02-20 16:45:00,
2013-02-20 08:50:00,36.0,28.5,29.65,WNW,292,0.0,1.0,74,0.01,,---,0.01,VWS V13.01,2013-02-20 16:50:00,
2013-02-20 08:55:00,37.0,29.5,29.65,WNW,292,1.0,3.0,74,0.00,,---,0.01,VWS V13.01,2013-02-20 16:55:00,
2013-02-20 09:00:00,37.0,29.5,29.65,West,270,0.0,0.0,74,0.00,,---,0.01,VWS V13.01,2013-02-20 17:00:00,
2013-02-20 09:05:00,39.0,31.1,29.63,West,270,0.0,0.0,73,0.00,,---,0.01,VWS V13.01,2013-02-20 17:05:00,
2013-02-20 09:10:00,39.0,31.1,29.63,WNW,292,0.0,1.0,73,0.00,,---,0.01,VWS V13.01,2013-02-20 17:10:00,
2013-02-20 09:15:00,40.0,32.1,29.64,WNW,292,2.0,2.0,73,0.00,,---,0.01,VWS V13.01,2013-02-20 17:15:00,
2013-02-20 09:20:00,40.0,32.1,29.64,WNW,292,1.0,1.0,73,0.00,,---,0.01,VWS V13.01,2013-02-20 17:20:00,
2013-02-20 09:25:00,42.0,34.0,29.65,WNW,292,0.0,0.0,73,0.00,,---,0.01,VWS V13.01,2013-02-20 17:25:00,
2013-02-20 09:30:00,43.0,35.3,29.65,West,270,0.0,0.0,74,0.00,,---,0.01,VWS V13.01,2013-02-20 17:30:00,
2013-02-20 09:35:00,43.0,35.3,29.64,WNW,292,0.0,0.0,74,0.00,,---,0.01,VWS V13.01,2013-02-20 17:35:00,
2013-02-20 09:40:00,44.0,36.3,29.64,North,360,0.0,0.0,74,0.00,,---,0.01,VWS V13.01,2013-02-20 17:40:00,
2013-02-20 09:45:00,45.0,37.2,29.61,North,360,0.0,0.0,74,0.00,,---,0.01,VWS V13.01,2013-02-20 17:45:00,
2013-02-20 09:50:00,45.0,37.6,29.61,North,360,0.0,1.0,75,0.00,,---,0.01,VWS V13.01,2013-02-20 17:50:00,
2013-02-20 09:55:00,45.0,37.6,29.62,North,360,0.0,0.0,75,0.00,,---,0.01,VWS V13.01,2013-02-20 17:55:00,
2013-02-20 10:00:00,46.0,38.5,29.62,North,360,0.0,0.0,75,0.00,,---,0.01,VWS V13.01,2013-02-20 18:00:00,
2013-02-20 10:05:00,47.0,39.5,29.61,North,360,0.0,0.0,75,0.00,,---,0.01,VWS V13.01,2013-02-20 18:05:00,
2013-02-20 10:10:00,47.0,39.5,29.61,NW,315,0.0,2.0,75,0.00,,---,0.01,VWS V13.01,2013-02-20 18:10:00,
2013-02-20 10:15:00,48.0,40.8,29.61,North,360,0.0,0.0,76,0.00,,---,0.01,VWS V13.01,2013-02-20 18:15:00,
2013-02-20 10:20:00,48.0,40.8,29.61,North,360,0.0,0.0,76,0.00,,---,0.01,VWS V13.01,2013-02-20 18:20:00,
2013-02-20 10:25:00,49.0,41.8,29.62,North,360,0.0,0.0,76,0.00,,---,0.01,VWS V13.01,2013-02-20 18:25:00,
2013-02-20 10:30:00,49.0,41.8,29.62,NW,315,0.0,0.0,76,0.00,,---,0.01,VWS V13.01,2013-02-20 18:30:00,
2013-02-20 10:35:00,49.0,41.8,29.61,NNW,337,0.0,0.0,76,0.00,,---,0.01,VWS V13.01,2013-02-20 18:35:00,
2013-02-20 10:40:00,49.0,41.8,29.61,North,360,0.0,0.0,76,0.00,,---,0.01,VWS V13.01,2013-02-20 18:40:00,
2013-02-20 10:45:00,50.0,42.7,29.62,North,360,0.0,1.0,76,0.00,,---,0.01,VWS V13.01,2013-02-20 18:45:00,
2013-02-20 10:50:00,49.0,41.8,29.62,North,360,3.0,5.0,76,0.00,,---,0.01,VWS V13.01,2013-02-20 18:50:00,
2013-02-20 10:55:00,50.0,42.7,29.61,North,360,0.0,1.0,76,0.00,,---,0.01,VWS V13.01,2013-02-20 18:55:00,
2013-02-20 11:00:00,50.0,42.7,29.61,North,360,3.0,3.0,76,0.00,,---,0.01,VWS V13.01,2013-02-20 19:00:00,
2013-02-20 11:05:00,51.0,43.7,29.61,North,360,0.0,0.0,76,0.00,,---,0.01,VWS V13.01,2013-02-20 19:05:00,
2013-02-20 11:10:00,52.0,44.7,29.61,North,360,0.0,0.0,76,0.00,,---,0.01,VWS V13.01,2013-02-20 19:10:00,
2013-02-20 11:15:00,53.0,46.0,29.61,North,360,0.0,0.0,77,0.00,,---,0.01,VWS V13.01,2013-02-20 19:15:00,
2013-02-20 11:20:00,53.0,46.0,29.61,North,360,0.0,0.0,77,0.00,,---,0.01,VWS V13.01,2013-02-20 19:20:00,
2013-02-20 11:25:00,54.0,47.3,29.59,NW,315,0.0,8.0,78,0.00,,---,0.01,VWS V13.01,2013-02-20 19:25:00,
2013-02-20 11:30:00,54.0,47.3,29.59,North,360,0.0,0.0,78,0.00,,---,0.01,VWS V13.01,2013-02-20 19:30:00,
2013-02-20 11:35:00,55.0,48.3,29.58,North,360,0.0,2.0,78,0.00,,---,0.01,VWS V13.01,2013-02-20 19:35:00,
2013-02-20 11:40:00,55.0,48.3,29.58,NNE,22,2.0,4.0,78,0.00,,---,0.01,VWS V13.01,2013-02-20 19:40:00,
2013-02-20 11:45:00,55.0,48.3,29.59,NNE,22,3.0,5.0,78,0.00,,---,0.01,VWS V13.01,2013-02-20 19:45:00,
2013-02-20 11:50:00,55.0,48.3,29.59,NNE,22,0.0,1.0,78,0.00,,---,0.01,VWS V13.01,2013-02-20 19:50:00,
2013-02-20 11:55:00,55.0,48.3,29.59,North,360,0.0,4.0,78,0.00,,---,0.01,VWS V13.01,2013-02-20 19:55:00,
2013-02-20 12:00:00,56.0,49.2,29.59,North,360,0.0,2.0,78,0.00,,---,0.01,VWS V13.01,2013-02-20 20:00:00,
2013-02-20 12:05:00,56.0,49.2,29.58,North,360,2.0,5.0,78,0.00,,---,0.01,VWS V13.01,2013-02-20 20:05:00,
2013-02-20 12:10:00,56.0,49.2,29.58,North,360,0.0,0.0,78,0.00,,---,0.01,VWS V13.01,2013-02-20 20:10:00,
2013-02-20 12:15:00,56.0,49.2,29.58,NNE,22,2.0,2.0,78,0.00,,---,0.01,VWS V13.01,2013-02-20 20:15:00,
2013-02-20 12:20:00,56.0,49.2,29.58,North,360,2.0,2.0,78,0.00,,---,0.01,VWS V13.01,2013-02-20 20:20:00,
2013-02-20 12:25:00,56.0,49.2,29.58,North,360,4.0,6.0,78,0.00,,---,0.01,VWS V13.01,2013-02-20 20:25:00,
2013-02-20 12:30:00,57.0,50.2,29.58,NNW,337,2.0,6.0,78,0.00,,---,0.01,VWS V13.01,2013-02-20 20:30:00,
2013-02-20 12:35:00,57.0,50.2,29.59,North,360,0.0,3.0,78,0.00,,---,0.01,VWS V13.01,2013-02-20 20:35:00,
2013-02-20 12:40:00,56.0,49.2,29.59,North,360,1.0,4.0,78,0.00,,---,0.01,VWS V13.01,2013-02-20 20:40:00,
2013-02-20 12:45:00,57.0,50.2,29.59,NNE,22,2.0,5.0,78,0.00,,---,0.01,VWS V13.01,2013-02-20 20:45:00,
2013-02-20 12:50:00,57.0,50.2,29.59,NW,315,3.0,5.0,78,0.00,,---,0.01,VWS V13.01,2013-02-20 20:50:00,
2013-02-20 12:55:00,57.0,50.2,29.57,NNE,22,3.0,6.0,78,0.00,,---,0.01,VWS V13.01,2013-02-20 20:55:00,
2013-02-20 13:00:00,57.0,50.2,29.57,NNW,337,2.0,3.0,78,0.00,,---,0.01,VWS V13.01,2013-02-20 21:00:00,
2013-02-20 13:05:00,57.0,50.2,29.59,NW,315,0.0,1.0,78,0.00,,---,0.01,VWS V13.01,2013-02-20 21:05:00,
2013-02-20 13:10:00,58.0,51.2,29.59,NNE,22,2.0,4.0,78,0.00,,---,0.01,VWS V13.01,2013-02-20 21:10:00,
2013-02-20 13:15:00,58.0,51.2,29.59,NNE,22,1.0,1.0,78,0.00,,---,0.01,VWS V13.01,2013-02-20 21:15:00,
2013-02-20 13:20:00,58.0,51.2,29.59,North,360,5.0,6.0,78,0.00,,---,0.01,VWS V13.01,2013-02-20 21:20:00,
2013-02-20 13:25:00,58.0,51.2,29.59,North,360,3.0,3.0,78,0.00,,---,0.01,VWS V13.01,2013-02-20 21:25:00,
2013-02-20 13:30:00,58.0,51.2,29.59,NNE,22,2.0,4.0,78,0.00,,---,0.01,VWS V13.01,2013-02-20 21:30:00,
2013-02-20 13:35:00,58.0,51.2,29.57,North,360,0.0,2.0,78,0.00,,---,0.01,VWS V13.01,2013-02-20 21:35:00,
2013-02-20 13:40:00,58.0,51.2,29.57,North,360,3.0,3.0,78,0.00,,---,0.01,VWS V13.01,2013-02-20 21:40:00,
2013-02-20 13:45:00,58.0,51.2,29.58,North,360,3.0,3.0,78,0.00,,---,0.01,VWS V13.01,2013-02-20 21:45:00,
2013-02-20 13:50:00,58.0,51.2,29.58,WNW,292,5.0,5.0,78,0.00,,---,0.01,VWS V13.01,2013-02-20 21:50:00,
2013-02-20 13:55:00,58.0,51.2,29.58,NNW,337,1.0,7.0,78,0.00,,---,0.01,VWS V13.01,2013-02-20 21:55:00,
2013-02-20 14:00:00,59.0,52.2,29.58,North,360,0.0,4.0,78,0.00,,---,0.01,VWS V13.01,2013-02-20 22:00:00,
2013-02-20 14:05:00,59.0,52.2,29.58,North,360,3.0,3.0,78,0.00,,---,0.01,VWS V13.01,2013-02-20 22:05:00,
2013-02-20 14:10:00,59.0,52.2,29.58,NE,45,2.0,4.0,78,0.00,,---,0.01,VWS V13.01,2013-02-20 22:10:00,
2013-02-20 14:15:00,59.0,52.2,29.58,North,360,2.0,2.0,78,0.00,,---,0.01,VWS V13.01,2013-02-20 22:15:00,
2013-02-20 14:20:00,59.0,52.2,29.57,North,360,2.0,2.0,78,0.00,,---,0.01,VWS V13.01,2013-02-20 22:20:00,
2013-02-20 14:25:00,59.0,52.2,29.56,North,360,5.0,6.0,78,0.00,,---,0.01,VWS V13.01,2013-02-20 22:25:00,
2013-02-20 14:30:00,59.0,52.2,29.56,North,360,3.0,4.0,78,0.00,,---,0.01,VWS V13.01,2013-02-20 22:30:00,
2013-02-20 14:35:00,59.0,52.2,29.58,North,360,5.0,5.0,78,0.00,,---,0.01,VWS V13.01,2013-02-20 22:35:00,
2013-02-20 14:40:00,58.0,51.2,29.58,North,360,1.0,5.0,78,0.00,,---,0.01,VWS V13.01,2013-02-20 22:40:00,
2013-02-20 14:45:00,59.0,52.2,29.58,NNE,22,2.0,5.0,78,0.00,,---,0.01,VWS V13.01,2013-02-20 22:45:00,
2013-02-20 14:50:00,58.0,51.2,29.58,North,360,1.0,3.0,78,0.00,,---,0.01,VWS V13.01,2013-02-20 22:50:00,
2013-02-20 14:55:00,58.0,51.2,29.59,NNE,22,2.0,3.0,78,0.00,,---,0.01,VWS V13.01,2013-02-20 22:55:00,
2013-02-20 15:00:00,59.0,52.2,29.59,NNE,22,3.0,3.0,78,0.00,,---,0.01,VWS V13.01,2013-02-20 23:00:00,
2013-02-20 15:05:00,59.0,52.2,29.58,NNE,22,1.0,5.0,78,0.00,,---,0.01,VWS V13.01,2013-02-20 23:05:00,
2013-02-20 15:10:00,59.0,52.2,29.58,North,360,3.0,3.0,78,0.00,,---,0.01,VWS V13.01,2013-02-20 23:10:00,
2013-02-20 15:15:00,59.0,52.2,29.59,NNW,337,0.0,0.0,78,0.00,,---,0.01,VWS V13.01,2013-02-20 23:15:00,
2013-02-20 15:20:00,59.0,52.2,29.59,North,360,0.0,0.0,78,0.00,,---,0.01,VWS V13.01,2013-02-20 23:20:00,
2013-02-20 15:25:00,60.0,53.5,29.58,North,360,0.0,0.0,79,0.00,,---,0.01,VWS V13.01,2013-02-20 23:25:00,
2013-02-20 15:30:00,60.0,53.5,29.58,NNE,22,0.0,0.0,79,0.00,,---,0.01,VWS V13.01,2013-02-20 23:30:00,
2013-02-20 15:35:00,59.0,52.2,29.59,North,360,1.0,5.0,78,0.00,,---,0.01,VWS V13.01,2013-02-20 23:35:00,
2013-02-20 15:40:00,59.0,52.2,29.59,North,360,0.0,2.0,78,0.00,,---,0.01,VWS V13.01,2013-02-20 23:40:00,
2013-02-20 15:45:00,59.0,52.2,29.59,NNE,22,1.0,1.0,78,0.00,,---,0.01,VWS V13.01,2013-02-20 23:45:00,
2013-02-20 15:50:00,59.0,52.2,29.59,NNE,22,0.0,0.0,78,0.00,,---,0.01,VWS V13.01,2013-02-20 23:50:00,
2013-02-20 15:55:00,59.0,52.2,29.58,NNE,22,2.0,3.0,78,0.00,,---,0.01,VWS V13.01,2013-02-20 23:55:00,
2013-02-20 16:00:00,59.0,52.2,29.58,NNE,22,0.0,1.0,78,0.00,,---,0.01,VWS V13.01,2013-02-21 00:00:00,
2013-02-20 16:05:00,59.0,52.2,29.60,NNE,22,2.0,4.0,78,0.00,,---,0.01,VWS V13.01,2013-02-21 00:05:00,
2013-02-20 16:10:00,58.0,51.2,29.60,North,360,1.0,4.0,78,0.00,,---,0.01,VWS V13.01,2013-02-21 00:10:00,
2013-02-20 16:15:00,58.0,51.2,29.60,North,360,1.0,1.0,78,0.00,,---,0.01,VWS V13.01,2013-02-21 00:15:00,
2013-02-20 16:20:00,58.0,51.2,29.60,NNE,22,0.0,2.0,78,0.00,,---,0.01,VWS V13.01,2013-02-21 00:20:00,
2013-02-20 16:25:00,57.0,50.2,29.58,North,360,0.0,2.0,78,0.00,,---,0.01,VWS V13.01,2013-02-21 00:25:00,
2013-02-20 16:30:00,57.0,50.2,29.58,North,360,1.0,4.0,78,0.00,,---,0.01,VWS V13.01,2013-02-21 00:30:00,
2013-02-20 16:35:00,56.0,49.2,29.59,North,360,0.0,2.0,78,0.00,,---,0.01,VWS V13.01,2013-02-21 00:35:00,
2013-02-20 16:40:00,55.0,48.3,29.59,North,360,0.0,2.0,78,0.00,,---,0.01,VWS V13.01,2013-02-21 00:40:00,
2013-02-20 16:45:00,55.0,48.3,29.59,NNE,22,0.0,0.0,78,0.00,,---,0.01,VWS V13.01,2013-02-21 00:45:00,
2013-02-20 16:50:00,55.0,48.3,29.59,NE,45,1.0,3.0,78,0.00,,---,0.01,VWS V13.01,2013-02-21 00:50:00,
2013-02-20 16:55:00,55.0,48.3,29.60,NNE,22,2.0,2.0,78,0.00,,---,0.01,VWS V13.01,2013-02-21 00:55:00,
2013-02-20 17:00:00,54.0,47.3,29.60,NNE,22,2.0,2.0,78,0.00,,---,0.01,VWS V13.01,2013-02-21 01:00:00,
2013-02-20 17:05:00,54.0,47.3,29.60,North,360,0.0,0.0,78,0.00,,---,0.01,VWS V13.01,2013-02-21 01:05:00,
2013-02-20 17:10:00,54.0,47.3,29.60,North,360,0.0,0.0,78,0.00,,---,0.01,VWS V13.01,2013-02-21 01:10:00,
2013-02-20 17:15:00,54.0,47.3,29.60,North,360,0.0,0.0,78,0.00,,---,0.01,VWS V13.01,2013-02-21 01:15:00,
2013-02-20 17:20:00,53.0,46.0,29.60,North,360,0.0,1.0,77,0.00,,---,0.01,VWS V13.01,2013-02-21 01:20:00,
2013-02-20 17:25:00,53.0,46.0,29.60,North,360,0.0,0.0,77,0.00,,---,0.01,VWS V13.01,2013-02-21 01:25:00,
2013-02-20 17:30:00,53.0,46.0,29.60,North,360,0.0,0.0,77,0.00,,---,0.01,VWS V13.01,2013-02-21 01:30:00,
2013-02-20 17:35:00,52.0,45.0,29.60,NW,315,0.0,0.0,77,0.00,,---,0.01,VWS V13.01,2013-02-21 01:35:00,
2013-02-20 17:40:00,52.0,45.0,29.60,North,360,0.0,0.0,77,0.00,,---,0.01,VWS V13.01,2013-02-21 01:40:00,
2013-02-20 17:45:00,52.0,45.0,29.62,North,360,0.0,0.0,77,0.00,,---,0.01,VWS V13.01,2013-02-21 01:45:00,
2013-02-20 17:50:00,51.0,44.0,29.62,North,360,0.0,0.0,77,0.00,,---,0.01,VWS V13.01,2013-02-21 01:50:00,
2013-02-20 17:54:00,50.0,43.1,29.61,WNW,292,0.0,0.0,77,0.00,,---,0.01,VWS V13.01,2013-02-21 01:54:00,
2013-02-20 17:59:00,50.0,43.1,29.61,WNW,292,0.0,0.0,77,0.00,,---,0.01,VWS V13.01,2013-02-21 01:59:00,
2013-02-20 18:04:00,50.0,43.1,29.62,WNW,292,0.0,0.0,77,0.00,,---,0.01,VWS V13.01,2013-02-21 02:04:00,
2013-02-20 18:09:00,50.0,43.1,29.62,WNW,292,0.0,0.0,77,0.00,,---,0.01,VWS V13.01,2013-02-21 02:09:00,
2013-02-20 18:14:00,50.0,43.1,29.63,WNW,292,0.0,0.0,77,0.00,,---,0.01,VWS V13.01,2013-02-21 02:14:00,
2013-02-20 18:19:00,50.0,43.1,29.63,WNW,292,0.0,0.0,77,0.00,,---,0.01,VWS V13.01,2013-02-21 02:19:00,
2013-02-20 18:24:00,50.0,43.1,29.61,WSW,247,0.0,0.0,77,0.00,,---,0.01,VWS V13.01,2013-02-21 02:24:00,
2013-02-20 18:29:00,50.0,43.1,29.61,West,270,0.0,0.0,77,0.00,,---,0.01,VWS V13.01,2013-02-21 02:29:00,
2013-02-20 18:34:00,50.0,43.1,29.62,West,270,0.0,0.0,77,0.00,,---,0.01,VWS V13.01,2013-02-21 02:34:00,
2013-02-20 18:39:00,49.0,42.1,29.62,West,270,0.0,0.0,77,0.00,,---,0.01,VWS V13.01,2013-02-21 02:39:00,
2013-02-20 18:44:00,49.0,42.1,29.63,SW,225,0.0,0.0,77,0.00,,---,0.01,VWS V13.01,2013-02-21 02:44:00,
2013-02-20 18:49:00,49.0,42.1,29.63,SSW,202,0.0,0.0,77,0.00,,---,0.01,VWS V13.01,2013-02-21 02:49:00,
2013-02-20 18:54:00,49.0,42.1,29.63,SSW,202,0.0,1.0,77,0.00,,---,0.01,VWS V13.01,2013-02-21 02:54:00,
2013-02-20 18:59:00,49.0,42.1,29.63,WSW,247,0.0,0.0,77,0.00,,---,0.01,VWS V13.01,2013-02-21 02:59:00,
2013-02-20 19:04:00,49.0,42.1,29.63,West,270,0.0,0.0,77,0.00,,---,0.01,VWS V13.01,2013-02-21 03:04:00,
2013-02-20 19:09:00,49.0,42.1,29.63,West,270,0.0,0.0,77,0.00,,---,0.01,VWS V13.01,2013-02-21 03:09:00,
2013-02-20 19:14:00,49.0,42.1,29.63,WNW,292,0.0,0.0,77,0.00,,---,0.01,VWS V13.01,2013-02-21 03:14:00,
2013-02-20 19:19:00,49.0,42.1,29.63,WNW,292,0.0,0.0,77,0.00,,---,0.01,VWS V13.01,2013-02-21 03:19:00,
2013-02-20 19:24:00,49.0,42.1,29.64,WSW,247,0.0,0.0,77,0.00,,---,0.01,VWS V13.01,2013-02-21 03:24:00,
2013-02-20 19:29:00,49.0,42.1,29.64,WSW,247,0.0,0.0,77,0.00,,---,0.01,VWS V13.01,2013-02-21 03:29:00,
2013-02-20 19:34:00,49.0,42.1,29.64,West,270,0.0,0.0,77,0.00,,---,0.01,VWS V13.01,2013-02-21 03:34:00,
2013-02-20 19:39:00,48.0,41.2,29.64,WNW,292,0.0,0.0,77,0.00,,---,0.01,VWS V13.01,2013-02-21 03:39:00,
2013-02-20 19:44:00,48.0,41.2,29.65,West,270,0.0,0.0,77,0.00,,---,0.01,VWS V13.01,2013-02-21 03:44:00,
2013-02-20 19:49:00,48.0,41.2,29.65,West,270,1.0,1.0,77,0.00,,---,0.01,VWS V13.01,2013-02-21 03:49:00,
2013-02-20 19:54:00,49.0,42.1,29.65,WNW,292,0.0,0.0,77,0.00,,---,0.01,VWS V13.01,2013-02-21 03:54:00,
2013-02-20 19:59:00,49.0,42.1,29.65,WSW,247,0.0,0.0,77,0.00,,---,0.01,VWS V13.01,2013-02-21 03:59:00,
2013-02-20 20:04:00,48.0,41.2,29.66,WNW,292,0.0,0.0,77,0.00,,---,0.01,VWS V13.01,2013-02-21 04:04:00,
2013-02-20 20:09:00,48.0,41.2,29.66,WNW,292,0.0,0.0,77,0.00,,---,0.01,VWS V13.01,2013-02-21 04:09:00,
2013-02-20 20:14:00,48.0,41.2,29.65,West,270,0.0,0.0,77,0.00,,---,0.01,VWS V13.01,2013-02-21 04:14:00,
2013-02-20 20:19:00,48.0,41.2,29.65,WSW,247,0.0,0.0,77,0.00,,---,0.01,VWS V13.01,2013-02-21 04:19:00,
2013-02-20 20:24:00,47.0,39.8,29.66,SW,225,0.0,0.0,76,0.00,,---,0.01,VWS V13.01,2013-02-21 04:24:00,
2013-02-20 20:29:00,47.0,39.8,29.66,SW,225,0.0,0.0,76,0.00,,---,0.01,VWS V13.01,2013-02-21 04:29:00,
2013-02-20 20:34:00,47.0,39.8,29.66,SW,225,0.0,0.0,76,0.00,,---,0.01,VWS V13.01,2013-02-21 04:34:00,
2013-02-20 20:39:00,46.0,38.9,29.66,SW,225,0.0,0.0,76,0.00,,---,0.01,VWS V13.01,2013-02-21 04:39:00,
2013-02-20 20:44:00,46.0,38.9,29.68,SW,225,0.0,0.0,76,0.00,,---,0.01,VWS V13.01,2013-02-21 04:44:00,
2013-02-20 20:49:00,45.0,37.9,29.68,SW,225,0.0,0.0,76,0.00,,---,0.01,VWS V13.01,2013-02-21 04:49:00,
2013-02-20 20:54:00,45.0,37.9,29.67,SW,225,0.0,0.0,76,0.00,,---,0.01,VWS V13.01,2013-02-21 04:54:00,
2013-02-20 20:59:00,45.0,37.9,29.67,WSW,247,0.0,0.0,76,0.00,,---,0.01,VWS V13.01,2013-02-21 04:59:00,
2013-02-20 21:00:00,45.0,37.9,29.67,WSW,247,0.0,0.0,76,0.00,,---,0.01,VWS V13.01,2013-02-21 05:00:00,
2013-02-20 21:05:00,46.0,38.5,29.67,SW,225,0.0,0.0,75,0.00,,---,0.01,VWS V13.01,2013-02-21 05:05:00,
2013-02-20 21:10:00,45.0,37.9,29.67,SW,225,0.0,0.0,76,0.00,,---,0.01,VWS V13.01,2013-02-21 05:10:00,
2013-02-20 21:15:00,45.0,37.6,29.68,SW,225,0.0,0.0,75,0.00,,---,0.01,VWS V13.01,2013-02-21 05:15:00,
2013-02-20 21:20:00,45.0,37.9,29.68,SW,225,0.0,0.0,76,0.00,,---,0.01,VWS V13.01,2013-02-21 05:20:00,
2013-02-20 21:25:00,43.0,36.0,29.68,SW,225,0.0,0.0,76,0.00,,---,0.01,VWS V13.01,2013-02-21 05:25:00,
2013-02-20 21:30:00,43.0,36.0,29.68,SW,225,0.0,0.0,76,0.00,,---,0.01,VWS V13.01,2013-02-21 05:30:00,
2013-02-20 21:35:00,43.0,36.0,29.69,SW,225,0.0,0.0,76,0.00,,---,0.01,VWS V13.01,2013-02-21 05:35:00,
2013-02-20 21:40:00,44.0,36.9,29.69,SW,225,0.0,0.0,76,0.00,,---,0.01,VWS V13.01,2013-02-21 05:40:00,
2013-02-20 21:45:00,43.0,36.0,29.70,SW,225,0.0,0.0,76,0.00,,---,0.01,VWS V13.01,2013-02-21 05:45:00,
2013-02-20 21:50:00,42.0,34.7,29.70,SW,225,0.0,0.0,75,0.00,,---,0.01,VWS V13.01,2013-02-21 05:50:00,
2013-02-20 21:55:00,41.0,33.7,29.71,SW,225,0.0,0.0,75,0.00,,---,0.01,VWS V13.01,2013-02-21 05:55:00,
2013-02-20 22:00:00,41.0,33.4,29.71,SW,225,0.0,0.0,74,0.00,,---,0.01,VWS V13.01,2013-02-21 06:00:00,
2013-02-20 22:05:00,41.0,33.7,29.71,SSW,202,0.0,0.0,75,0.00,,---,0.01,VWS V13.01,2013-02-21 06:05:00,
2013-02-20 22:10:00,42.0,34.7,29.71,SSW,202,0.0,0.0,75,0.00,,---,0.01,VWS V13.01,2013-02-21 06:10:00,
2013-02-20 22:15:00,41.0,33.7,29.71,SSW,202,0.0,0.0,75,0.00,,---,0.01,VWS V13.01,2013-02-21 06:15:00,
2013-02-20 22:20:00,42.0,34.3,29.71,SSE,157,0.0,0.0,74,0.00,,---,0.01,VWS V13.01,2013-02-21 06:20:00,
2013-02-20 22:25:00,42.0,34.3,29.71,SSE,157,0.0,0.0,74,0.00,,---,0.01,VWS V13.01,2013-02-21 06:25:00,
2013-02-20 22:30:00,43.0,36.0,29.71,SE,135,0.0,0.0,76,0.00,,---,0.01,VWS V13.01,2013-02-21 06:30:00,
2013-02-20 22:35:00,43.0,36.0,29.69,ESE,112,0.0,0.0,76,0.00,,---,0.01,VWS V13.01,2013-02-21 06:35:00,
2013-02-20 22:40:00,43.0,36.0,29.69,SE,135,0.0,0.0,76,0.00,,---,0.01,VWS V13.01,2013-02-21 06:40:00,
2013-02-20 22:45:00,42.0,34.7,29.71,SSE,157,0.0,2.0,75,0.00,,---,0.01,VWS V13.01,2013-02-21 06:45:00,
2013-02-20 22:50:00,42.0,34.7,29.71,ESE,112,0.0,0.0,75,0.00,,---,0.01,VWS V13.01,2013-02-21 06:50:00,
2013-02-20 22:55:00,42.0,34.3,29.70,ESE,112,3.0,3.0,74,0.00,,---,0.01,VWS V13.01,2013-02-21 06:55:00,
2013-02-20 23:00:00,41.0,33.7,29.70,SSE,157,0.0,2.0,75,0.00,,---,0.01,VWS V13.01,2013-02-21 07:00:00,
2013-02-20 23:05:00,41.0,33.4,29.72,East,90,1.0,2.0,74,0.00,,---,0.01,VWS V13.01,2013-02-21 07:05:00,
2013-02-20 23:10:00,41.0,33.4,29.72,East,90,5.0,5.0,74,0.00,,---,0.01,VWS V13.01,2013-02-21 07:10:00,
2013-02-20 23:15:00,41.0,33.4,29.70,ESE,112,1.0,1.0,74,0.00,,---,0.01,VWS V13.01,2013-02-21 07:15:00,
2013-02-20 23:20:00,41.0,33.4,29.70,ESE,112,0.0,0.0,74,0.00,,---,0.01,VWS V13.01,2013-02-21 07:20:00,
2013-02-20 23:25:00,41.0,33.4,29.69,ESE,112,2.0,2.0,74,0.00,,---,0.01,VWS V13.01,2013-02-21 07:25:00,
2013-02-20 23:30:00,41.0,33.4,29.69,East,90,0.0,0.0,74,0.00,,---,0.01,VWS V13.01,2013-02-21 07:30:00,
2013-02-20 23:35:00,41.0,33.4,29.70,ESE,112,0.0,0.0,74,0.00,,---,0.01,VWS V13.01,2013-02-21 07:35:00,
2013-02-20 23:40:00,40.0,32.4,29.70,ESE,112,0.0,0.0,74,0.00,,---,0.01,VWS V13.01,2013-02-21 07:40:00,
2013-02-20 23:45:00,40.0,32.4,29.72,East,90,0.0,0.0,74,0.00,,---,0.01,VWS V13.01,2013-02-21 07:45:00,
2013-02-20 23:50:00,39.0,31.4,29.72,East,90,0.0,0.0,74,0.00,,---,0.00,VWS V13.01,2013-02-21 07:50:00,
2013-02-20 23:55:00,39.0,31.4,29.73,ESE,112,0.0,0.0,74,0.00,,---,0.00,VWS V13.01,2013-02-21 07:55:00,